Time,TemperatureF,DewpointF,PressureIn,WindDirection,WindDirectionDegrees,WindSpeedMPH,WindSpeedGustMPH,Humidity,HourlyPrecipIn,Conditions,Clouds,dailyrainin,SolarRadiationWatts/m^2,SoftwareType,DateUTC
2013-01-25 00:02:00,27.1,12.0,30.08,East,101,0.0,0.0,53,0.00,,,0.00,0,Custom,2013-01-25 06:02:00,
2013-01-25 00:07:00,27.1,12.0,30.08,East,101,0.0,2.0,53,0.00,,,0.00,0,Custom,2013-01-25 06:07:00,
2013-01-25 00:12:00,27.2,13.0,30.08,East,101,0.0,0.0,54,0.00,,,0.00,0,Custom,2013-01-25 06:12:00,
2013-01-25 00:17:00,27.2,13.0,30.07,East,101,0.0,0.0,54,0.00,,,0.00,0,Custom,2013-01-25 06:17:00,
2013-01-25 00:22:00,27.2,12.0,30.08,East,101,0.0,0.0,53,0.00,,,0.00,0,Custom,2013-01-25 06:22:00,
2013-01-25 00:27:00,27.2,13.0,30.08,East,101,0.0,0.0,54,0.00,,,0.00,0,Custom,2013-01-25 06:27:00,
2013-01-25 00:32:00,27.2,13.0,30.08,East,101,0.0,0.0,54,0.00,,,0.00,0,Custom,2013-01-25 06:32:00,
2013-01-25 00:37:00,27.2,13.0,30.08,East,101,0.0,1.0,54,0.00,,,0.00,0,Custom,2013-01-25 06:37:00,
2013-01-25 00:42:00,27.3,13.0,30.08,East,101,0.0,1.0,53,0.00,,,0.00,0,Custom,2013-01-25 06:42:00,
2013-01-25 00:47:00,27.3,13.0,30.07,East,101,0.0,0.0,53,0.00,,,0.00,0,Custom,2013-01-25 06:47:00,
2013-01-25 00:52:00,27.3,13.0,30.07,East,101,0.0,0.0,54,0.00,,,0.00,0,Custom,2013-01-25 06:52:00,
2013-01-25 00:57:00,27.4,13.0,30.07,East,101,0.0,0.0,54,0.00,,,0.00,0,Custom,2013-01-25 06:57:00,
2013-01-25 01:02:00,27.4,13.0,30.08,East,101,0.0,0.0,54,0.00,,,0.00,0,Custom,2013-01-25 07:02:00,
2013-01-25 01:07:00,27.4,13.0,30.09,East,98,0.0,1.0,54,0.00,,,0.00,0,Custom,2013-01-25 07:07:00,
2013-01-25 01:12:00,27.4,13.0,30.08,East,98,0.0,0.0,54,0.00,,,0.00,0,Custom,2013-01-25 07:12:00,
2013-01-25 01:17:00,27.4,13.0,30.08,East,98,0.0,1.0,55,0.00,,,0.00,0,Custom,2013-01-25 07:17:00,
2013-01-25 01:22:00,27.4,13.0,30.08,East,98,0.0,0.0,53,0.00,,,0.00,0,Custom,2013-01-25 07:22:00,
2013-01-25 01:27:00,27.4,13.0,30.08,East,98,0.0,1.0,54,0.00,,,0.00,0,Custom,2013-01-25 07:27:00,
2013-01-25 01:32:00,27.4,13.0,30.07,East,89,0.0,1.0,54,0.00,,,0.00,0,Custom,2013-01-25 07:32:00,
2013-01-25 01:37:00,27.3,13.0,30.08,North,11,2.0,2.0,54,0.00,,,0.00,0,Custom,2013-01-25 07:37:00,
2013-01-25 01:42:00,27.3,13.0,30.09,North,0,2.0,2.0,54,0.00,,,0.00,0,Custom,2013-01-25 07:42:00,
2013-01-25 01:47:00,27.3,13.0,30.09,North,0,3.0,5.0,55,0.00,,,0.00,0,Custom,2013-01-25 07:47:00,
2013-01-25 01:52:00,27.3,13.0,30.09,North,0,3.0,4.0,54,0.00,,,0.00,0,Custom,2013-01-25 07:52:00,
2013-01-25 01:57:00,27.3,13.0,30.09,North,359,0.0,3.0,54,0.00,,,0.00,0,Custom,2013-01-25 07:57:00,
2013-01-25 02:02:00,27.3,13.0,30.09,North,359,0.0,1.0,55,0.00,,,0.00,0,Custom,2013-01-25 08:02:00,
2013-01-25 02:07:00,27.3,13.0,30.08,North,359,0.0,2.0,54,0.00,,,0.00,0,Custom,2013-01-25 08:07:00,
2013-01-25 02:12:00,27.2,13.0,30.09,North,359,0.0,2.0,54,0.00,,,0.00,0,Custom,2013-01-25 08:12:00,
2013-01-25 02:17:00,27.2,13.0,30.08,North,359,0.0,1.0,55,0.00,,,0.00,0,Custom,2013-01-25 08:17:00,
2013-01-25 02:22:00,27.1,13.0,30.08,North,359,1.0,0.0,54,0.00,,,0.00,0,Custom,2013-01-25 08:22:00,
2013-01-25 02:27:00,27.0,12.0,30.08,North,359,0.0,2.0,54,0.00,,,0.00,0,Custom,2013-01-25 08:27:00,
2013-01-25 02:32:00,27.0,13.0,30.08,North,359,0.0,1.0,54,0.00,,,0.00,0,Custom,2013-01-25 08:32:00,
2013-01-25 02:37:00,27.0,13.0,30.08,North,360,0.0,1.0,55,0.00,,,0.00,0,Custom,2013-01-25 08:37:00,
2013-01-25 02:42:00,27.0,13.0,30.09,North,359,0.0,1.0,54,0.00,,,0.00,0,Custom,2013-01-25 08:42:00,
2013-01-25 02:47:00,27.0,13.0,30.08,North,359,0.0,0.0,55,0.00,,,0.00,0,Custom,2013-01-25 08:47:00,
2013-01-25 02:52:00,27.0,13.0,30.08,North,359,0.0,1.0,54,0.00,,,0.00,0,Custom,2013-01-25 08:52:00,
2013-01-25 02:57:00,27.0,13.0,30.08,North,360,0.0,1.0,55,0.00,,,0.00,0,Custom,2013-01-25 08:57:00,
2013-01-25 03:02:00,27.1,13.0,30.08,North,360,0.0,1.0,55,0.00,,,0.00,0,Custom,2013-01-25 09:02:00,
2013-01-25 03:07:00,27.0,13.0,30.08,NNE,12,0.0,2.0,54,0.00,,,0.00,0,Custom,2013-01-25 09:07:00,
2013-01-25 03:12:00,26.9,13.0,30.09,North,10,0.0,2.0,54,0.00,,,0.00,0,Custom,2013-01-25 09:12:00,
2013-01-25 03:17:00,26.9,13.0,30.08,North,10,0.0,2.0,54,0.00,,,0.00,0,Custom,2013-01-25 09:17:00,
2013-01-25 03:22:00,26.8,13.0,30.08,North,10,0.0,0.0,55,0.00,,,0.00,0,Custom,2013-01-25 09:22:00,
2013-01-25 03:27:00,26.8,13.0,30.08,North,10,0.0,0.0,55,0.00,,,0.00,0,Custom,2013-01-25 09:27:00,
2013-01-25 03:32:00,26.8,13.0,30.08,North,10,0.0,1.0,54,0.00,,,0.00,0,Custom,2013-01-25 09:32:00,
2013-01-25 03:37:00,26.8,13.0,30.07,North,10,1.0,1.0,55,0.00,,,0.00,0,Custom,2013-01-25 09:37:00,
2013-01-25 03:42:00,26.7,12.0,30.06,North,10,0.0,1.0,54,0.00,,,0.00,0,Custom,2013-01-25 09:42:00,
2013-01-25 03:47:00,26.5,13.0,30.05,North,10,0.0,1.0,55,0.00,,,0.00,0,Custom,2013-01-25 09:47:00,
2013-01-25 03:52:00,26.5,13.0,30.05,North,10,0.0,0.0,55,0.00,,,0.00,0,Custom,2013-01-25 09:52:00,
2013-01-25 03:57:00,26.3,13.0,30.05,North,10,0.0,0.0,56,0.00,,,0.00,0,Custom,2013-01-25 09:57:00,
2013-01-25 04:02:00,26.2,12.0,30.05,North,10,0.0,0.0,56,0.00,,,0.00,0,Custom,2013-01-25 10:02:00,
2013-01-25 04:07:00,26.2,12.0,30.06,North,10,0.0,0.0,55,0.00,,,0.00,0,Custom,2013-01-25 10:07:00,
2013-01-25 04:12:00,26.2,13.0,30.05,North,10,0.0,1.0,57,0.00,,,0.00,0,Custom,2013-01-25 10:12:00,
2013-01-25 04:17:00,26.1,13.0,30.06,North,10,0.0,0.0,57,0.00,,,0.00,0,Custom,2013-01-25 10:17:00,
2013-01-25 04:22:00,26.0,13.0,30.06,North,10,0.0,1.0,57,0.00,,,0.00,0,Custom,2013-01-25 10:22:00,
2013-01-25 04:27:00,25.9,13.0,30.06,North,10,0.0,0.0,57,0.00,,,0.00,0,Custom,2013-01-25 10:27:00,
2013-01-25 04:32:00,25.9,13.0,30.06,North,10,0.0,0.0,57,0.00,,,0.00,0,Custom,2013-01-25 10:32:00,
2013-01-25 04:37:00,25.9,13.0,30.06,North,10,0.0,0.0,57,0.00,,,0.00,0,Custom,2013-01-25 10:37:00,
2013-01-25 04:42:00,25.8,13.0,30.06,North,10,0.0,0.0,57,0.00,,,0.00,0,Custom,2013-01-25 10:42:00,
2013-01-25 04:47:00,25.7,13.0,30.06,North,10,0.0,0.0,57,0.00,,,0.00,0,Custom,2013-01-25 10:47:00,
2013-01-25 04:52:00,25.5,12.0,30.06,North,10,0.0,0.0,57,0.00,,,0.00,0,Custom,2013-01-25 10:52:00,
2013-01-25 04:57:00,25.5,13.0,30.06,North,10,0.0,0.0,57,0.00,,,0.00,0,Custom,2013-01-25 10:57:00,
2013-01-25 05:02:00,25.4,13.0,30.06,North,10,0.0,0.0,59,0.00,,,0.00,0,Custom,2013-01-25 11:02:00,
2013-01-25 05:07:00,25.6,13.0,30.06,North,10,0.0,0.0,58,0.00,,,0.00,0,Custom,2013-01-25 11:07:00,
2013-01-25 05:12:00,25.7,13.0,30.06,North,10,0.0,0.0,58,0.00,,,0.00,0,Custom,2013-01-25 11:12:00,
2013-01-25 05:17:00,25.7,13.0,30.06,North,10,0.0,0.0,58,0.00,,,0.00,0,Custom,2013-01-25 11:17:00,
2013-01-25 05:22:00,25.6,13.0,30.06,North,10,0.0,0.0,58,0.00,,,0.00,0,Custom,2013-01-25 11:22:00,
2013-01-25 05:27:00,25.4,13.0,30.06,North,10,0.0,0.0,58,0.00,,,0.00,0,Custom,2013-01-25 11:27:00,
2013-01-25 05:32:00,25.3,12.0,30.05,North,10,0.0,0.0,58,0.00,,,0.00,0,Custom,2013-01-25 11:32:00,
2013-01-25 05:37:00,24.7,12.0,30.06,North,10,0.0,0.0,58,0.00,,,0.00,0,Custom,2013-01-25 11:37:00,
2013-01-25 05:42:00,24.1,12.0,30.05,North,10,0.0,0.0,59,0.00,,,0.00,0,Custom,2013-01-25 11:42:00,
2013-01-25 05:47:00,23.8,12.0,30.05,North,10,0.0,0.0,60,0.00,,,0.00,0,Custom,2013-01-25 11:47:00,
2013-01-25 05:52:00,23.2,11.0,30.05,North,10,0.0,0.0,60,0.00,,,0.00,0,Custom,2013-01-25 11:52:00,
2013-01-25 05:57:00,22.7,12.0,30.06,North,10,0.0,0.0,62,0.00,,,0.00,0,Custom,2013-01-25 11:57:00,
2013-01-25 06:02:00,22.5,12.0,30.06,North,10,0.0,0.0,63,0.00,,,0.00,0,Custom,2013-01-25 12:02:00,
2013-01-25 06:07:00,22.4,12.0,30.07,North,10,0.0,0.0,64,0.00,,,0.00,0,Custom,2013-01-25 12:07:00,
2013-01-25 06:12:00,22.2,12.0,30.08,North,10,0.0,0.0,64,0.00,,,0.00,0,Custom,2013-01-25 12:12:00,
2013-01-25 06:17:00,21.6,11.0,30.08,North,10,0.0,0.0,65,0.00,,,0.00,0,Custom,2013-01-25 12:17:00,
2013-01-25 06:22:00,21.5,11.0,30.09,North,10,0.0,0.0,65,0.00,,,0.00,0,Custom,2013-01-25 12:22:00,
2013-01-25 06:27:00,21.7,12.0,30.09,North,10,0.0,0.0,65,0.00,,,0.00,0,Custom,2013-01-25 12:27:00,
2013-01-25 06:32:00,21.6,12.0,30.09,North,10,0.0,0.0,66,0.00,,,0.00,0,Custom,2013-01-25 12:32:00,
2013-01-25 06:37:00,21.3,12.0,30.09,North,10,0.0,0.0,66,0.00,,,0.00,0,Custom,2013-01-25 12:37:00,
2013-01-25 06:42:00,21.1,12.0,30.10,North,10,0.0,0.0,66,0.00,,,0.00,0,Custom,2013-01-25 12:42:00,
2013-01-25 06:47:00,20.7,11.0,30.09,North,10,0.0,0.0,67,0.00,,,0.00,0,Custom,2013-01-25 12:47:00,
2013-01-25 06:52:00,20.3,11.0,30.10,North,10,0.0,0.0,68,0.00,,,0.00,0,Custom,2013-01-25 12:52:00,
2013-01-25 06:57:00,20.5,12.0,30.10,North,10,0.0,0.0,68,0.00,,,0.00,0,Custom,2013-01-25 12:57:00,
2013-01-25 07:02:00,20.5,12.0,30.11,North,10,0.0,0.0,69,0.00,,,0.00,0,Custom,2013-01-25 13:02:00,
2013-01-25 07:07:00,20.6,12.0,30.11,North,10,0.0,0.0,68,0.00,,,0.00,0,Custom,2013-01-25 13:07:00,
2013-01-25 07:12:00,20.1,11.0,30.11,North,10,0.0,0.0,68,0.00,,,0.00,0,Custom,2013-01-25 13:12:00,
2013-01-25 07:17:00,19.7,11.0,30.11,North,10,0.0,0.0,70,0.00,,,0.00,0,Custom,2013-01-25 13:17:00,
2013-01-25 07:22:00,19.9,12.0,30.11,North,10,0.0,0.0,70,0.00,,,0.00,0,Custom,2013-01-25 13:22:00,
2013-01-25 07:27:00,20.5,12.0,30.10,North,10,0.0,0.0,70,0.00,,,0.00,0,Custom,2013-01-25 13:27:00,
2013-01-25 07:32:00,20.5,12.0,30.10,North,10,0.0,0.0,69,0.00,,,0.00,0,Custom,2013-01-25 13:32:00,
2013-01-25 07:37:00,20.3,12.0,30.10,North,10,0.0,0.0,69,0.00,,,0.00,0,Custom,2013-01-25 13:37:00,
2013-01-25 07:42:00,20.0,11.0,30.11,North,10,0.0,0.0,69,0.00,,,0.00,8.97,Custom,2013-01-25 13:42:00,
2013-01-25 07:47:00,20.0,12.0,30.10,North,10,0.0,0.0,71,0.00,,,0.00,12.09,Custom,2013-01-25 13:47:00,
2013-01-25 07:52:00,19.9,12.0,30.11,North,10,0.0,0.0,71,0.00,,,0.00,15.21,Custom,2013-01-25 13:52:00,
2013-01-25 07:57:00,19.8,12.0,30.11,North,10,0.0,0.0,71,0.00,,,0.00,17.55,Custom,2013-01-25 13:57:00,
2013-01-25 08:02:00,19.7,12.0,30.11,North,10,0.0,0.0,71,0.00,,,0.00,20.28,Custom,2013-01-25 14:02:00,
2013-01-25 08:07:00,20.1,12.0,30.11,North,10,0.0,0.0,72,0.00,,,0.00,23.79,Custom,2013-01-25 14:07:00,
2013-01-25 08:12:00,20.6,12.0,30.10,North,10,0.0,0.0,70,0.00,,,0.00,26.52,Custom,2013-01-25 14:12:00,
2013-01-25 08:17:00,21.5,13.0,30.11,North,10,0.0,0.0,69,0.00,,,0.00,30.03,Custom,2013-01-25 14:17:00,
2013-01-25 08:22:00,23.3,14.0,30.11,North,10,0.0,0.0,66,0.00,,,0.00,37.44,Custom,2013-01-25 14:22:00,
2013-01-25 08:27:00,24.2,13.0,30.10,North,10,0.0,0.0,63,0.00,,,0.00,44.85,Custom,2013-01-25 14:27:00,
2013-01-25 08:32:00,24.9,13.0,30.10,North,10,0.0,0.0,60,0.00,,,0.00,55.77,Custom,2013-01-25 14:32:00,
2013-01-25 08:37:00,25.9,13.0,30.09,North,10,0.0,0.0,57,0.00,,,0.00,70.59,Custom,2013-01-25 14:37:00,
2013-01-25 08:42:00,26.2,12.0,30.10,North,0,0.0,2.0,55,0.00,,,0.00,58.89,Custom,2013-01-25 14:42:00,
2013-01-25 08:47:00,26.4,12.0,30.11,North,359,0.0,1.0,54,0.00,,,0.00,46.8,Custom,2013-01-25 14:47:00,
2013-01-25 08:52:00,26.8,12.0,30.11,North,360,0.0,2.0,54,0.00,,,0.00,48.75,Custom,2013-01-25 14:52:00,
2013-01-25 08:57:00,27.2,13.0,30.11,North,360,0.0,1.0,54,0.00,,,0.00,54.6,Custom,2013-01-25 14:57:00,
2013-01-25 09:02:00,27.8,13.0,30.10,North,360,0.0,0.0,54,0.00,,,0.00,48.75,Custom,2013-01-25 15:02:00,
2013-01-25 09:07:00,28.5,13.0,30.11,North,360,0.0,1.0,53,0.00,,,0.00,132.99,Custom,2013-01-25 15:07:00,
2013-01-25 09:12:00,29.4,14.0,30.11,North,360,0.0,0.0,52,0.00,,,0.00,101.01,Custom,2013-01-25 15:12:00,
2013-01-25 09:17:00,30.4,14.0,30.11,North,360,0.0,2.0,51,0.00,,,0.00,124.8,Custom,2013-01-25 15:17:00,
2013-01-25 09:22:00,30.7,14.0,30.11,North,360,0.0,1.0,50,0.00,,,0.00,173.16,Custom,2013-01-25 15:22:00,
2013-01-25 09:27:00,31.3,14.0,30.10,WNW,297,0.0,2.0,49,0.00,,,0.00,226.59,Custom,2013-01-25 15:27:00,
2013-01-25 09:32:00,32.0,15.0,30.10,West,277,0.0,2.0,49,0.00,,,0.00,242.19,Custom,2013-01-25 15:32:00,
2013-01-25 09:37:00,32.0,14.0,30.10,WNW,283,0.0,3.0,47,0.00,,,0.00,257.4,Custom,2013-01-25 15:37:00,
2013-01-25 09:42:00,33.0,15.0,30.10,WNW,283,0.0,3.0,47,0.00,,,0.00,269.88,Custom,2013-01-25 15:42:00,
2013-01-25 09:47:00,33.2,14.0,30.10,WNW,282,1.0,3.0,45,0.00,,,0.00,285.48,Custom,2013-01-25 15:47:00,
2013-01-25 09:52:00,34.4,15.0,30.11,West,278,2.0,3.0,45,0.00,,,0.00,294.84,Custom,2013-01-25 15:52:00,
2013-01-25 09:57:00,34.1,15.0,30.10,WNW,285,0.0,3.0,44,0.00,,,0.00,308.88,Custom,2013-01-25 15:57:00,
2013-01-25 10:02:00,34.6,15.0,30.10,WNW,285,0.0,3.0,45,0.00,,,0.00,319.41,Custom,2013-01-25 16:02:00,
2013-01-25 10:07:00,35.2,15.0,30.09,WNW,303,0.0,1.0,44,0.00,,,0.00,329.55,Custom,2013-01-25 16:07:00,
2013-01-25 10:12:00,35.6,16.0,30.09,WNW,303,0.0,3.0,45,0.00,,,0.00,343.59,Custom,2013-01-25 16:12:00,
2013-01-25 10:17:00,35.8,15.0,30.10,WNW,286,0.0,3.0,43,0.00,,,0.00,352.17,Custom,2013-01-25 16:17:00,
2013-01-25 10:22:00,35.6,15.0,30.10,WNW,290,0.0,3.0,43,0.00,,,0.00,361.53,Custom,2013-01-25 16:22:00,
2013-01-25 10:27:00,35.9,16.0,30.10,NE,37,0.0,4.0,44,0.00,,,0.00,371.67,Custom,2013-01-25 16:27:00,
2013-01-25 10:32:00,35.9,16.0,30.11,West,273,0.0,2.0,44,0.00,,,0.00,377.91,Custom,2013-01-25 16:32:00,
2013-01-25 10:37:00,37.1,17.0,30.10,North,0,0.0,3.0,44,0.00,,,0.00,387.66,Custom,2013-01-25 16:37:00,
2013-01-25 10:42:00,37.5,18.0,30.11,North,0,0.0,3.0,44,0.00,,,0.00,379.47,Custom,2013-01-25 16:42:00,
2013-01-25 10:47:00,37.6,17.0,30.11,North,349,0.0,5.0,44,0.00,,,0.00,383.76,Custom,2013-01-25 16:47:00,
2013-01-25 10:52:00,37.5,17.0,30.12,West,272,0.0,4.0,43,0.00,,,0.00,399.75,Custom,2013-01-25 16:52:00,
2013-01-25 10:57:00,37.6,17.0,30.11,West,264,0.0,4.0,43,0.00,,,0.00,414.57,Custom,2013-01-25 16:57:00,
2013-01-25 11:02:00,38.2,18.0,30.11,WNW,286,0.0,2.0,44,0.00,,,0.00,441.48,Custom,2013-01-25 17:02:00,
2013-01-25 11:07:00,38.2,18.0,30.11,West,270,0.0,4.0,43,0.00,,,0.00,410.28,Custom,2013-01-25 17:07:00,
2013-01-25 11:12:00,38.9,17.0,30.11,West,277,2.0,2.0,42,0.00,,,0.00,447.33,Custom,2013-01-25 17:12:00,
2013-01-25 11:17:00,38.9,17.0,30.11,West,277,0.0,2.0,41,0.00,,,0.00,445.77,Custom,2013-01-25 17:17:00,
2013-01-25 11:22:00,39.2,17.0,30.11,West,277,0.0,0.0,42,0.00,,,0.00,441.87,Custom,2013-01-25 17:22:00,
2013-01-25 11:27:00,39.7,18.0,30.11,West,277,0.0,2.0,41,0.00,,,0.00,459.03,Custom,2013-01-25 17:27:00,
2013-01-25 11:32:00,39.8,18.0,30.11,West,278,0.0,0.0,42,0.00,,,0.00,432.9,Custom,2013-01-25 17:32:00,
2013-01-25 11:37:00,40.5,19.0,30.11,West,278,0.0,2.0,41,0.00,,,0.00,478.14,Custom,2013-01-25 17:37:00,
2013-01-25 11:42:00,41.8,19.0,30.10,SSW,209,0.0,2.0,40,0.00,,,0.00,502.71,Custom,2013-01-25 17:42:00,
2013-01-25 11:47:00,42.3,20.0,30.11,SSW,209,0.0,0.0,40,0.00,,,0.00,433.68,Custom,2013-01-25 17:47:00,
2013-01-25 11:52:00,42.2,19.0,30.11,SW,220,0.0,3.0,39,0.00,,,0.00,459.81,Custom,2013-01-25 17:52:00,
2013-01-25 11:57:00,42.2,20.0,30.11,SW,226,2.0,2.0,40,0.00,,,0.00,478.53,Custom,2013-01-25 17:57:00,
2013-01-25 12:02:00,42.0,19.0,30.11,SSW,196,0.0,4.0,40,0.00,,,0.00,541.32,Custom,2013-01-25 18:02:00,
2013-01-25 12:07:00,42.8,20.0,30.11,SSW,212,0.0,3.0,39,0.00,,,0.00,455.52,Custom,2013-01-25 18:07:00,
2013-01-25 12:12:00,41.9,19.0,30.11,SW,228,0.0,4.0,39,0.00,,,0.00,416.91,Custom,2013-01-25 18:12:00,
2013-01-25 12:17:00,42.6,20.0,30.10,SW,230,0.0,4.0,41,0.00,,,0.00,444.99,Custom,2013-01-25 18:17:00,
2013-01-25 12:22:00,42.4,20.0,30.10,WNW,285,0.0,5.0,40,0.00,,,0.00,420.81,Custom,2013-01-25 18:22:00,
2013-01-25 12:27:00,42.4,20.0,30.10,West,263,0.0,2.0,40,0.00,,,0.00,446.16,Custom,2013-01-25 18:27:00,
2013-01-25 12:32:00,43.9,20.0,30.09,WNW,288,3.0,3.0,39,0.00,,,0.00,421.98,Custom,2013-01-25 18:32:00,
2013-01-25 12:37:00,43.2,20.0,30.10,WNW,290,0.0,3.0,40,0.00,,,0.00,429,Custom,2013-01-25 18:37:00,
2013-01-25 12:42:00,44.3,21.0,30.09,South,184,5.0,5.0,39,0.00,,,0.00,462.93,Custom,2013-01-25 18:42:00,
2013-01-25 12:47:00,44.7,21.0,30.09,West,268,0.0,4.0,39,0.00,,,0.00,507,Custom,2013-01-25 18:47:00,
2013-01-25 12:52:00,46.6,22.0,30.09,SW,214,0.0,1.0,38,0.00,,,0.00,519.48,Custom,2013-01-25 18:52:00,
2013-01-25 12:57:00,45.6,21.0,30.09,West,260,0.0,4.0,37,0.00,,,0.00,460.2,Custom,2013-01-25 18:57:00,
2013-01-25 13:02:00,46.0,20.0,30.09,West,260,0.0,1.0,36,0.00,,,0.00,422.37,Custom,2013-01-25 19:02:00,
2013-01-25 13:07:00,46.7,22.0,30.08,West,260,0.0,1.0,37,0.00,,,0.00,437.19,Custom,2013-01-25 19:07:00,
2013-01-25 13:12:00,47.2,22.0,30.08,SW,233,0.0,1.0,36,0.00,,,0.00,437.58,Custom,2013-01-25 19:12:00,
2013-01-25 13:17:00,46.9,21.0,30.08,WSW,247,0.0,3.0,36,0.00,,,0.00,440.7,Custom,2013-01-25 19:17:00,
2013-01-25 13:22:00,47.7,23.0,30.08,WSW,247,0.0,3.0,37,0.00,,,0.00,483.21,Custom,2013-01-25 19:22:00,
2013-01-25 13:27:00,47.4,22.0,30.07,NW,304,0.0,4.0,36,0.00,,,0.00,487.5,Custom,2013-01-25 19:27:00,
2013-01-25 13:32:00,47.1,21.0,30.07,West,280,0.0,4.0,36,0.00,,,0.00,450.45,Custom,2013-01-25 19:32:00,
2013-01-25 13:37:00,47.3,21.0,30.08,WNW,287,0.0,2.0,35,0.00,,,0.00,410.28,Custom,2013-01-25 19:37:00,
2013-01-25 13:42:00,47.3,22.0,30.08,West,273,0.0,3.0,36,0.00,,,0.00,450.84,Custom,2013-01-25 19:42:00,
2013-01-25 13:47:00,47.8,22.0,30.08,West,281,0.0,2.0,36,0.00,,,0.00,409.5,Custom,2013-01-25 19:47:00,
2013-01-25 13:52:00,47.5,22.0,30.08,SW,232,0.0,4.0,36,0.00,,,0.00,409.5,Custom,2013-01-25 19:52:00,
2013-01-25 13:57:00,47.8,22.0,30.08,SW,232,0.0,3.0,36,0.00,,,0.00,377.13,Custom,2013-01-25 19:57:00,
2013-01-25 14:02:00,48.2,22.0,30.08,West,259,0.0,2.0,36,0.00,,,0.00,400.92,Custom,2013-01-25 20:02:00,
2013-01-25 14:07:00,49.0,23.0,30.07,West,267,1.0,2.0,36,0.00,,,0.00,314.73,Custom,2013-01-25 20:07:00,
2013-01-25 14:12:00,48.6,21.0,30.07,West,268,0.0,2.0,34,0.00,,,0.00,350.22,Custom,2013-01-25 20:12:00,
2013-01-25 14:17:00,48.3,22.0,30.07,SSW,210,0.0,4.0,34,0.00,,,0.00,358.02,Custom,2013-01-25 20:17:00,
2013-01-25 14:22:00,49.1,23.0,30.07,WNW,291,0.0,5.0,35,0.00,,,0.00,353.34,Custom,2013-01-25 20:22:00,
2013-01-25 14:27:00,50.5,23.0,30.07,SSW,213,0.0,2.0,34,0.00,,,0.00,353.73,Custom,2013-01-25 20:27:00,
2013-01-25 14:32:00,50.8,22.0,30.06,WSW,246,1.0,3.0,33,0.00,,,0.00,388.44,Custom,2013-01-25 20:32:00,
2013-01-25 14:37:00,50.2,23.0,30.06,WNW,290,2.0,4.0,34,0.00,,,0.00,376.74,Custom,2013-01-25 20:37:00,
2013-01-25 14:42:00,50.4,23.0,30.07,SW,221,0.0,3.0,33,0.00,,,0.00,356.07,Custom,2013-01-25 20:42:00,
2013-01-25 14:47:00,51.0,23.0,30.07,West,279,0.0,5.0,33,0.00,,,0.00,336.57,Custom,2013-01-25 20:47:00,
2013-01-25 14:52:00,51.4,24.0,30.07,West,279,0.0,3.0,34,0.00,,,0.00,285.09,Custom,2013-01-25 20:52:00,
2013-01-25 14:57:00,51.0,22.0,30.06,SSW,205,0.0,6.0,32,0.00,,,0.00,275.34,Custom,2013-01-25 20:57:00,
2013-01-25 15:02:00,51.6,23.0,30.06,SSW,208,0.0,2.0,33,0.00,,,0.00,260.91,Custom,2013-01-25 21:02:00,
2013-01-25 15:07:00,50.7,22.0,30.06,SSW,208,1.0,1.0,32,0.00,,,0.00,211.77,Custom,2013-01-25 21:07:00,
2013-01-25 15:12:00,50.7,22.0,30.06,SSW,211,0.0,2.0,33,0.00,,,0.00,216.06,Custom,2013-01-25 21:12:00,
2013-01-25 15:17:00,50.7,23.0,30.06,SSW,211,1.0,0.0,33,0.00,,,0.00,198.51,Custom,2013-01-25 21:17:00,
2013-01-25 15:22:00,50.6,23.0,30.06,SSW,211,0.0,0.0,33,0.00,,,0.00,189.93,Custom,2013-01-25 21:22:00,
2013-01-25 15:27:00,49.7,22.0,30.06,SSW,211,0.0,2.0,34,0.00,,,0.00,138.45,Custom,2013-01-25 21:27:00,
2013-01-25 15:32:00,48.8,23.0,30.07,WNW,298,0.0,3.0,36,0.00,,,0.00,140.79,Custom,2013-01-25 21:32:00,
2013-01-25 15:37:00,49.2,23.0,30.07,WNW,292,0.0,2.0,35,0.00,,,0.00,124.41,Custom,2013-01-25 21:37:00,
2013-01-25 15:42:00,48.8,23.0,30.07,WNW,292,0.0,0.0,36,0.00,,,0.00,120.12,Custom,2013-01-25 21:42:00,
2013-01-25 15:47:00,48.4,23.0,30.08,WNW,293,0.0,1.0,36,0.00,,,0.00,103.35,Custom,2013-01-25 21:47:00,
2013-01-25 15:52:00,48.1,23.0,30.08,West,264,0.0,2.0,36,0.00,,,0.00,103.35,Custom,2013-01-25 21:52:00,
2013-01-25 15:57:00,47.5,23.0,30.08,West,264,0.0,0.0,37,0.00,,,0.00,90.87,Custom,2013-01-25 21:57:00,
2013-01-25 16:02:00,47.4,23.0,30.08,West,264,0.0,1.0,38,0.00,,,0.00,92.43,Custom,2013-01-25 22:02:00,
2013-01-25 16:07:00,47.0,23.0,30.08,West,264,0.0,1.0,38,0.00,,,0.00,83.85,Custom,2013-01-25 22:07:00,
2013-01-25 16:12:00,46.6,23.0,30.08,West,264,0.0,0.0,39,0.00,,,0.00,75.27,Custom,2013-01-25 22:12:00,
2013-01-25 16:17:00,46.3,23.0,30.08,West,264,0.0,0.0,40,0.00,,,0.00,72.93,Custom,2013-01-25 22:17:00,
2013-01-25 16:22:00,45.9,22.0,30.08,West,264,0.0,0.0,39,0.00,,,0.00,68.25,Custom,2013-01-25 22:22:00,
2013-01-25 16:27:00,45.5,23.0,30.08,West,264,0.0,0.0,41,0.00,,,0.00,61.23,Custom,2013-01-25 22:27:00,
2013-01-25 16:32:00,45.2,23.0,30.09,West,264,0.0,0.0,41,0.00,,,0.00,58.89,Custom,2013-01-25 22:32:00,
2013-01-25 16:37:00,45.0,23.0,30.09,West,264,0.0,0.0,41,0.00,,,0.00,51.48,Custom,2013-01-25 22:37:00,
2013-01-25 16:42:00,44.7,23.0,30.09,West,264,0.0,0.0,41,0.00,,,0.00,43.29,Custom,2013-01-25 22:42:00,
2013-01-25 16:47:00,44.4,23.0,30.09,West,264,0.0,0.0,42,0.00,,,0.00,37.05,Custom,2013-01-25 22:47:00,
2013-01-25 16:52:00,44.0,23.0,30.09,West,264,0.0,0.0,43,0.00,,,0.00,31.59,Custom,2013-01-25 22:52:00,
2013-01-25 16:57:00,43.4,22.0,30.08,West,264,0.0,0.0,43,0.00,,,0.00,25.74,Custom,2013-01-25 22:57:00,
2013-01-25 17:02:00,42.6,22.0,30.08,West,264,0.0,0.0,45,0.00,,,0.00,23.01,Custom,2013-01-25 23:02:00,
2013-01-25 17:07:00,42.1,22.0,30.09,West,264,0.0,0.0,45,0.00,,,0.00,19.5,Custom,2013-01-25 23:07:00,
2013-01-25 17:12:00,41.7,22.0,30.08,West,264,0.0,0.0,46,0.00,,,0.00,16.77,Custom,2013-01-25 23:12:00,
2013-01-25 17:17:00,40.7,22.0,30.09,West,264,0.0,0.0,48,0.00,,,0.00,10.53,Custom,2013-01-25 23:17:00,
2013-01-25 17:22:00,40.2,22.0,30.09,West,264,0.0,0.0,48,0.00,,,0.00,0,Custom,2013-01-25 23:22:00,
2013-01-25 17:27:00,39.6,22.0,30.09,West,264,0.0,0.0,49,0.00,,,0.00,0,Custom,2013-01-25 23:27:00,
2013-01-25 17:32:00,39.2,22.0,30.09,West,264,0.0,0.0,50,0.00,,,0.00,0,Custom,2013-01-25 23:32:00,
2013-01-25 17:37:00,38.6,22.0,30.09,West,264,0.0,0.0,51,0.00,,,0.00,0,Custom,2013-01-25 23:37:00,
2013-01-25 17:42:00,38.2,22.0,30.09,West,264,0.0,0.0,51,0.00,,,0.00,0,Custom,2013-01-25 23:42:00,
2013-01-25 17:47:00,38.0,22.0,30.09,West,264,0.0,0.0,52,0.00,,,0.00,0,Custom,2013-01-25 23:47:00,
2013-01-25 17:52:00,37.8,22.0,30.09,West,264,0.0,0.0,52,0.00,,,0.00,0,Custom,2013-01-25 23:52:00,
2013-01-25 17:57:00,37.3,22.0,30.09,West,264,0.0,0.0,52,0.00,,,0.00,0,Custom,2013-01-25 23:57:00,
2013-01-25 18:02:00,36.9,21.0,30.10,West,264,0.0,0.0,53,0.00,,,0.00,0,Custom,2013-01-26 00:02:00,
2013-01-25 18:07:00,37.1,22.0,30.10,West,264,0.0,0.0,54,0.00,,,0.00,0,Custom,2013-01-26 00:07:00,
2013-01-25 18:12:00,36.6,21.0,30.10,West,264,0.0,0.0,53,0.00,,,0.00,0,Custom,2013-01-26 00:12:00,
2013-01-25 18:17:00,36.6,21.0,30.10,West,264,0.0,0.0,53,0.00,,,0.00,0,Custom,2013-01-26 00:17:00,
2013-01-25 18:22:00,36.7,21.0,30.10,West,264,0.0,0.0,53,0.00,,,0.00,0,Custom,2013-01-26 00:22:00,
2013-01-25 18:27:00,36.8,22.0,30.10,West,264,0.0,0.0,54,0.00,,,0.00,0,Custom,2013-01-26 00:27:00,
2013-01-25 18:32:00,36.4,21.0,30.11,West,264,0.0,0.0,54,0.00,,,0.00,0,Custom,2013-01-26 00:32:00,
2013-01-25 18:37:00,35.7,21.0,30.11,West,264,0.0,0.0,55,0.00,,,0.00,0,Custom,2013-01-26 00:37:00,
2013-01-25 18:42:00,35.7,21.0,30.11,West,264,0.0,0.0,55,0.00,,,0.00,0,Custom,2013-01-26 00:42:00,
2013-01-25 18:47:00,35.4,21.0,30.11,West,264,0.0,0.0,55,0.00,,,0.00,0,Custom,2013-01-26 00:47:00,
2013-01-25 18:52:00,35.6,21.0,30.11,West,264,0.0,0.0,56,0.00,,,0.00,0,Custom,2013-01-26 00:52:00,
2013-01-25 18:57:00,35.6,21.0,30.11,West,264,0.0,0.0,56,0.00,,,0.00,0,Custom,2013-01-26 00:57:00,
2013-01-25 19:02:00,35.7,22.0,30.11,West,264,0.0,0.0,56,0.00,,,0.00,0,Custom,2013-01-26 01:02:00,
2013-01-25 19:07:00,35.4,22.0,30.11,West,264,0.0,0.0,57,0.00,,,0.00,0,Custom,2013-01-26 01:07:00,
2013-01-25 19:12:00,34.7,21.0,30.12,West,264,0.0,0.0,57,0.00,,,0.00,0,Custom,2013-01-26 01:12:00,
2013-01-25 19:17:00,34.6,21.0,30.11,West,264,0.0,0.0,58,0.00,,,0.00,0,Custom,2013-01-26 01:17:00,
2013-01-25 19:22:00,34.2,21.0,30.11,West,264,0.0,0.0,58,0.00,,,0.00,0,Custom,2013-01-26 01:22:00,
2013-01-25 19:27:00,34.0,21.0,30.12,West,264,0.0,0.0,59,0.00,,,0.00,0,Custom,2013-01-26 01:27:00,
2013-01-25 19:32:00,33.4,21.0,30.12,West,264,0.0,0.0,60,0.00,,,0.00,0,Custom,2013-01-26 01:32:00,
2013-01-25 19:37:00,33.2,21.0,30.12,West,264,0.0,0.0,61,0.00,,,0.00,0,Custom,2013-01-26 01:37:00,
2013-01-25 19:42:00,33.0,21.0,30.12,West,264,0.0,0.0,62,0.00,,,0.00,0,Custom,2013-01-26 01:42:00,
2013-01-25 19:47:00,33.3,21.0,30.12,West,264,0.0,0.0,61,0.00,,,0.00,0,Custom,2013-01-26 01:47:00,
2013-01-25 19:52:00,33.1,21.0,30.12,West,264,0.0,0.0,61,0.00,,,0.00,0,Custom,2013-01-26 01:52:00,
2013-01-25 19:57:00,32.9,21.0,30.12,West,264,0.0,0.0,62,0.00,,,0.00,0,Custom,2013-01-26 01:57:00,
2013-01-25 20:02:00,32.8,21.0,30.13,West,264,0.0,0.0,62,0.00,,,0.00,0,Custom,2013-01-26 02:02:00,
2013-01-25 20:07:00,32.9,21.0,30.13,West,264,0.0,0.0,63,0.00,,,0.00,0,Custom,2013-01-26 02:07:00,
2013-01-25 20:12:00,33.0,22.0,30.13,West,264,0.0,0.0,63,0.00,,,0.00,0,Custom,2013-01-26 02:12:00,
2013-01-25 20:17:00,32.0,21.0,30.13,West,264,0.0,0.0,63,0.00,,,0.00,0,Custom,2013-01-26 02:17:00,
2013-01-25 20:22:00,31.0,20.0,30.13,West,264,0.0,0.0,64,0.00,,,0.00,0,Custom,2013-01-26 02:22:00,
2013-01-25 20:27:00,30.6,20.0,30.13,West,264,0.0,0.0,65,0.00,,,0.00,0,Custom,2013-01-26 02:27:00,
2013-01-25 20:32:00,30.7,21.0,30.13,West,264,0.0,0.0,66,0.00,,,0.00,0,Custom,2013-01-26 02:32:00,
2013-01-25 20:37:00,30.7,21.0,30.13,West,264,0.0,0.0,66,0.00,,,0.00,0,Custom,2013-01-26 02:37:00,
2013-01-25 20:42:00,30.2,20.0,30.14,West,264,0.0,0.0,66,0.00,,,0.00,0,Custom,2013-01-26 02:42:00,
2013-01-25 20:47:00,29.7,20.0,30.14,West,264,0.0,0.0,67,0.00,,,0.00,0,Custom,2013-01-26 02:47:00,
2013-01-25 20:52:00,30.0,20.0,30.14,West,264,0.0,0.0,68,0.00,,,0.00,0,Custom,2013-01-26 02:52:00,
2013-01-25 20:57:00,30.4,21.0,30.14,West,264,0.0,0.0,68,0.00,,,0.00,0,Custom,2013-01-26 02:57:00,
2013-01-25 21:02:00,30.8,22.0,30.14,West,264,0.0,0.0,68,0.00,,,0.00,0,Custom,2013-01-26 03:02:00,
2013-01-25 21:07:00,30.3,21.0,30.14,West,264,0.0,0.0,67,0.00,,,0.00,0,Custom,2013-01-26 03:07:00,
2013-01-25 21:12:00,29.0,20.0,30.14,West,264,0.0,2.0,68,0.00,,,0.00,0,Custom,2013-01-26 03:12:00,
2013-01-25 21:17:00,28.9,20.0,30.14,West,264,0.0,0.0,69,0.00,,,0.00,0,Custom,2013-01-26 03:17:00,
2013-01-25 21:22:00,28.9,20.0,30.14,West,264,0.0,0.0,70,0.00,,,0.00,0,Custom,2013-01-26 03:22:00,
2013-01-25 21:27:00,29.1,21.0,30.14,West,264,0.0,0.0,71,0.00,,,0.00,0,Custom,2013-01-26 03:27:00,
2013-01-25 21:32:00,29.3,21.0,30.14,West,264,0.0,0.0,70,0.00,,,0.00,0,Custom,2013-01-26 03:32:00,
2013-01-25 21:37:00,29.4,21.0,30.14,West,264,0.0,0.0,70,0.00,,,0.00,0,Custom,2013-01-26 03:37:00,
2013-01-25 21:42:00,29.1,20.0,30.14,West,264,0.0,0.0,70,0.00,,,0.00,0,Custom,2013-01-26 03:42:00,
2013-01-25 21:47:00,29.0,20.0,30.14,West,264,0.0,0.0,70,0.00,,,0.00,0,Custom,2013-01-26 03:47:00,
2013-01-25 21:52:00,28.6,20.0,30.14,West,264,0.0,0.0,70,0.00,,,0.00,0,Custom,2013-01-26 03:52:00,
2013-01-25 21:57:00,28.4,20.0,30.14,West,264,0.0,0.0,70,0.00,,,0.00,0,Custom,2013-01-26 03:57:00,
2013-01-25 22:02:00,28.6,21.0,30.14,West,264,0.0,0.0,72,0.00,,,0.00,0,Custom,2013-01-26 04:02:00,
2013-01-25 22:07:00,28.6,20.0,30.14,West,264,0.0,0.0,71,0.00,,,0.00,0,Custom,2013-01-26 04:07:00,
2013-01-25 22:12:00,28.2,20.0,30.14,West,264,0.0,0.0,71,0.00,,,0.00,0,Custom,2013-01-26 04:12:00,
2013-01-25 22:17:00,27.8,20.0,30.14,West,264,0.0,0.0,72,0.00,,,0.00,0,Custom,2013-01-26 04:17:00,
2013-01-25 22:22:00,27.4,20.0,30.14,West,264,0.0,0.0,72,0.00,,,0.00,0,Custom,2013-01-26 04:22:00,
2013-01-25 22:27:00,27.3,20.0,30.14,West,264,0.0,0.0,73,0.00,,,0.00,0,Custom,2013-01-26 04:27:00,
2013-01-25 22:32:00,27.1,20.0,30.15,West,264,0.0,0.0,74,0.00,,,0.00,0,Custom,2013-01-26 04:32:00,
2013-01-25 22:37:00,27.0,20.0,30.15,West,264,0.0,0.0,74,0.00,,,0.00,0,Custom,2013-01-26 04:37:00,
2013-01-25 22:42:00,26.8,20.0,30.15,West,264,0.0,0.0,74,0.00,,,0.00,0,Custom,2013-01-26 04:42:00,
2013-01-25 22:47:00,26.5,19.0,30.15,West,264,0.0,0.0,74,0.00,,,0.00,0,Custom,2013-01-26 04:47:00,
2013-01-25 22:52:00,26.5,20.0,30.15,West,264,0.0,0.0,75,0.00,,,0.00,0,Custom,2013-01-26 04:52:00,
2013-01-25 22:57:00,27.0,20.0,30.15,West,264,0.0,0.0,75,0.00,,,0.00,0,Custom,2013-01-26 04:57:00,
2013-01-25 23:00:00,27.0,20.0,30.15,West,264,0.0,0.0,75,0.00,,,0.00,0,Custom,2013-01-26 05:00:00,
2013-01-25 23:04:00,27.1,20.0,30.15,West,264,0.0,0.0,75,0.00,,,0.00,0,Custom,2013-01-26 05:04:00,
2013-01-25 23:06:00,27.2,20.0,30.15,West,264,0.0,0.0,75,0.00,,,0.00,0,Custom,2013-01-26 05:06:00,
2013-01-25 23:11:00,26.6,19.0,30.16,West,264,0.0,0.0,74,0.00,,,0.00,0,Custom,2013-01-26 05:11:00,
2013-01-25 23:16:00,26.3,19.0,30.15,West,264,0.0,0.0,75,0.00,,,0.00,0,Custom,2013-01-26 05:16:00,
2013-01-25 23:21:00,26.3,20.0,30.16,West,264,0.0,0.0,76,0.00,,,0.00,0,Custom,2013-01-26 05:21:00,
2013-01-25 23:26:00,26.8,20.0,30.16,West,264,0.0,0.0,76,0.00,,,0.00,0,Custom,2013-01-26 05:26:00,
2013-01-25 23:31:00,26.9,20.0,30.16,West,264,0.0,0.0,75,0.00,,,0.00,0,Custom,2013-01-26 05:31:00,
2013-01-25 23:36:00,27.4,21.0,30.16,West,264,0.0,0.0,76,0.00,,,0.00,0,Custom,2013-01-26 05:36:00,
2013-01-25 23:41:00,28.0,21.0,30.16,West,264,0.0,0.0,75,0.00,,,0.00,0,Custom,2013-01-26 05:41:00,
2013-01-25 23:46:00,27.4,20.0,30.15,West,264,0.0,0.0,74,0.00,,,0.00,0,Custom,2013-01-26 05:46:00,
2013-01-25 23:51:00,27.2,20.0,30.16,West,264,0.0,0.0,74,0.00,,,0.00,0,Custom,2013-01-26 05:51:00,
2013-01-25 23:56:00,27.1,20.0,30.16,West,264,0.0,0.0,74,0.00,,,0.00,0,Custom,2013-01-26 05:56:00,